Hourly Data Report for October 03, 2017

All times are specified in Local Standard Time (LST). Add 1 hour to adjust for Daylight Saving Time where and when it is observed.

ST. PETERS
PRINCE EDWARD ISLAND

46°27'01.000" N
62°34'33.000" W
29.70 m
8300562
71310
ZSP

Download Data

Hourly Data (October 2017)
Hourly Data Report for October 3, 2017
Temp Definition
°C
Dew Point Temp Definition
°C
Rel Hum Definition
%
Wind Dir Definition
10's deg

Wind Spd Definition
km/h
Visibility Definition
km
Stn Press Definition
kPa
Hmdx Definition


Wind Chill Definition


Weather Definition


TIME
00:00 9.9 2.9 62 3 17   102.90     LegendNANA
01:00 10.2 3.2 62 36 14   102.95     LegendNANA
02:00 10.3 2.8 60 35 19   103.01     LegendNANA
03:00 10.2 2.7 59 35 15   103.04     LegendNANA
04:00 10.2 2.9 60 35 12   103.09     LegendNANA
05:00 10.0 3.2 62 35 12   103.12     LegendNANA
06:00 10.0 3.1 62 36 14   103.17     LegendNANA
07:00 10.2 3.5 63 34 12   103.22     LegendNANA
08:00 11.0 2.3 55 36 14   103.22     LegendNANA
09:00 11.4 2.9 56 34 12   103.30     LegendNANA
10:00 11.8 3.6 57 35 16   103.28     LegendNANA
11:00 12.2 3.4 55 33 14   103.25     LegendNANA
12:00 11.5 3.8 59 32 14   103.26     LegendNANA
13:00 12.2 3.9 57 31 17   103.23     LegendNANA
14:00 11.5 4.0 60 31 14   103.15     LegendNANA
15:00 10.9 4.8 66 30 12   103.06     LegendNANA
16:00 10.8 2.9 58 27 6   102.96     LegendNANA
17:00 9.9 5.2 72 25 6   102.90     LegendNANA
18:00 8.4 5.4 82 24 8   102.92     LegendNANA
19:00 8.0 5.4 84 20 7   102.87     LegendNANA
20:00 7.4 5.3 86 19 8   102.79     LegendNANA
21:00 6.9 4.7 86 16 10   102.71     LegendNANA
22:00 6.4 4.6 88 18 10   102.67     LegendNANA
23:00 7.7 6.2 90 20 13   102.52     LegendNANA

Notes on Data Quality.

Legend

  • E = Estimated
  • M = Missing
  • NA = Not Available
Date modified: